Year,Month,Day,Hour,Minute,Value (Times are PST for temperature in C)
2018,07,23,00,00,12.10
2018,07,23,00,01,12.00
2018,07,23,00,02,12.10
2018,07,23,00,03,12.10
2018,07,23,00,04,12.10
2018,07,23,00,05,12.10
2018,07,23,00,06,12.10
2018,07,23,00,07,12.10
2018,07,23,00,08,12.10
2018,07,23,00,09,12.10
2018,07,23,00,10,12.10
2018,07,23,00,11,12.10
2018,07,23,00,12,12.10
2018,07,23,00,13,12.20
2018,07,23,00,14,12.30
2018,07,23,00,15,12.30
2018,07,23,00,16,12.30
2018,07,23,00,17,12.30
2018,07,23,00,18,12.30
2018,07,23,00,19,12.40
2018,07,23,00,20,12.50
2018,07,23,00,21,12.50
2018,07,23,00,22,12.60
2018,07,23,00,23,12.60
2018,07,23,00,24,12.60
2018,07,23,00,25,12.60
2018,07,23,00,26,12.60
2018,07,23,00,27,12.60
2018,07,23,00,28,12.50
2018,07,23,00,29,12.50
2018,07,23,00,30,12.50
2018,07,23,00,31,12.50
2018,07,23,00,32,12.60
2018,07,23,00,33,12.60
2018,07,23,00,34,12.70
2018,07,23,00,35,12.70
2018,07,23,00,36,12.70
2018,07,23,00,37,12.80
2018,07,23,00,38,12.80
2018,07,23,00,39,12.80
2018,07,23,00,40,12.80
2018,07,23,00,41,12.80
2018,07,23,00,42,12.80
2018,07,23,00,43,12.80
2018,07,23,00,44,12.90
2018,07,23,00,45,13.00
2018,07,23,00,46,13.00
2018,07,23,00,47,13.10
2018,07,23,00,48,13.20
2018,07,23,00,49,13.20
2018,07,23,00,50,13.30
2018,07,23,00,51,13.30
2018,07,23,00,52,13.30
2018,07,23,00,53,13.30
2018,07,23,00,54,13.30
2018,07,23,00,55,13.30
2018,07,23,00,56,13.20
2018,07,23,00,57,13.20
2018,07,23,00,58,13.20
2018,07,23,00,59,13.20
2018,07,23,01,00,13.10
2018,07,23,01,01,13.10
2018,07,23,01,02,13.10
2018,07,23,01,03,13.10
2018,07,23,01,04,13.10
2018,07,23,01,05,13.10
2018,07,23,01,06,13.00
2018,07,23,01,07,13.00
2018,07,23,01,08,12.90
2018,07,23,01,09,12.90
2018,07,23,01,10,12.80
2018,07,23,01,11,12.80
2018,07,23,01,12,12.70
2018,07,23,01,13,12.70
2018,07,23,01,14,12.70
2018,07,23,01,15,12.60
2018,07,23,01,16,12.60
2018,07,23,01,17,12.60
2018,07,23,01,18,12.50
2018,07,23,01,19,12.50
2018,07,23,01,20,12.40
2018,07,23,01,21,12.40
2018,07,23,01,22,12.40
2018,07,23,01,23,12.40
2018,07,23,01,24,12.40
2018,07,23,01,25,12.40
2018,07,23,01,26,12.40
2018,07,23,01,27,12.40
2018,07,23,01,28,12.40
2018,07,23,01,29,12.40
2018,07,23,01,30,12.40
2018,07,23,01,31,12.40
2018,07,23,01,32,12.40
2018,07,23,01,33,12.40
2018,07,23,01,34,12.40
2018,07,23,01,35,12.40
2018,07,23,01,36,12.40
2018,07,23,01,37,12.30
2018,07,23,01,38,12.30
2018,07,23,01,39,12.30
2018,07,23,01,40,12.30
2018,07,23,01,41,12.30
2018,07,23,01,42,12.30
2018,07,23,01,43,12.30
2018,07,23,01,44,12.20
2018,07,23,01,45,12.20
2018,07,23,01,46,12.20
2018,07,23,01,47,12.20
2018,07,23,01,48,12.20
2018,07,23,01,49,12.10
2018,07,23,01,50,12.10
2018,07,23,01,51,12.10
2018,07,23,01,52,12.20
2018,07,23,01,53,12.20
2018,07,23,01,54,12.20
2018,07,23,01,55,12.20
2018,07,23,01,56,12.10
2018,07,23,01,57,12.10
2018,07,23,01,58,12.10
2018,07,23,01,59,12.10
2018,07,23,02,00,12.10
2018,07,23,02,01,12.10
2018,07,23,02,02,12.10
2018,07,23,02,03,12.00
2018,07,23,02,04,12.00
2018,07,23,02,05,12.00
2018,07,23,02,06,12.00
2018,07,23,02,07,12.00
2018,07,23,02,08,12.00
2018,07,23,02,09,11.90
2018,07,23,02,10,11.90
2018,07,23,02,11,11.90
2018,07,23,02,12,11.90
2018,07,23,02,13,11.90
2018,07,23,02,14,11.90
2018,07,23,02,15,11.90
2018,07,23,02,16,11.80
2018,07,23,02,17,11.80
2018,07,23,02,18,11.80
2018,07,23,02,19,11.80
2018,07,23,02,20,11.80
2018,07,23,02,21,11.80
2018,07,23,02,22,11.80
2018,07,23,02,23,11.80
2018,07,23,02,24,11.80
2018,07,23,02,25,11.70
2018,07,23,02,26,11.70
2018,07,23,02,27,11.70
2018,07,23,02,28,11.70
2018,07,23,02,29,11.70
2018,07,23,02,30,11.70
2018,07,23,02,31,11.70
2018,07,23,02,32,11.70
2018,07,23,02,33,11.70
2018,07,23,02,34,11.70
2018,07,23,02,35,11.70
2018,07,23,02,36,11.70
2018,07,23,02,37,11.70
2018,07,23,02,38,11.70
2018,07,23,02,39,11.60
2018,07,23,02,40,11.60
2018,07,23,02,41,11.60
2018,07,23,02,42,11.60
2018,07,23,02,43,11.60
2018,07,23,02,44,11.60
2018,07,23,02,45,11.60
2018,07,23,02,46,11.60
2018,07,23,02,47,11.60
2018,07,23,02,48,11.60
2018,07,23,02,49,11.60
2018,07,23,02,50,11.60
2018,07,23,02,51,11.60
2018,07,23,02,52,11.60
2018,07,23,02,53,11.60
2018,07,23,02,54,11.60
2018,07,23,02,55,11.60
2018,07,23,02,56,11.50
2018,07,23,02,57,11.50
2018,07,23,02,58,11.50
2018,07,23,02,59,11.50
2018,07,23,03,00,11.40
2018,07,23,03,01,11.40
2018,07,23,03,02,11.40
2018,07,23,03,03,11.40
2018,07,23,03,04,11.40
2018,07,23,03,05,11.40
2018,07,23,03,06,11.40
2018,07,23,03,07,11.40
2018,07,23,03,08,11.40
2018,07,23,03,09,11.40
2018,07,23,03,10,11.30
2018,07,23,03,11,11.30
2018,07,23,03,12,11.30
2018,07,23,03,13,11.30
2018,07,23,03,14,11.30
2018,07,23,03,15,11.30
2018,07,23,03,16,11.30
2018,07,23,03,17,11.30
2018,07,23,03,18,11.30
2018,07,23,03,19,11.30
2018,07,23,03,20,11.30
2018,07,23,03,21,11.30
2018,07,23,03,22,11.30
2018,07,23,03,23,11.30
2018,07,23,03,24,11.20
2018,07,23,03,25,11.20
2018,07,23,03,26,11.20
2018,07,23,03,27,11.20
2018,07,23,03,28,11.20
2018,07,23,03,29,11.20
2018,07,23,03,30,11.20
2018,07,23,03,31,11.20
2018,07,23,03,32,11.20
2018,07,23,03,33,11.10
2018,07,23,03,34,11.10
2018,07,23,03,35,11.10
2018,07,23,03,36,11.10
2018,07,23,03,37,11.10
2018,07,23,03,38,11.10
2018,07,23,03,39,11.10
2018,07,23,03,40,11.10
2018,07,23,03,41,11.10
2018,07,23,03,42,11.10
2018,07,23,03,43,11.00
2018,07,23,03,44,11.00
2018,07,23,03,45,11.00
2018,07,23,03,46,10.90
2018,07,23,03,47,10.90
2018,07,23,03,48,10.90
2018,07,23,03,49,10.90
2018,07,23,03,50,10.90
2018,07,23,03,51,10.90
2018,07,23,03,52,10.90
2018,07,23,03,53,10.80
2018,07,23,03,54,10.80
2018,07,23,03,55,10.80
2018,07,23,03,56,10.80
2018,07,23,03,57,10.80
2018,07,23,03,58,10.80
2018,07,23,03,59,10.80
2018,07,23,04,00,10.80
2018,07,23,04,01,10.80
2018,07,23,04,02,10.80
2018,07,23,04,03,10.80
2018,07,23,04,04,10.80
2018,07,23,04,05,10.80
2018,07,23,04,06,10.80
2018,07,23,04,07,10.80
2018,07,23,04,08,10.80
2018,07,23,04,09,10.80
2018,07,23,04,10,10.80
2018,07,23,04,11,10.80
2018,07,23,04,12,10.80
2018,07,23,04,13,10.80
2018,07,23,04,14,10.80
2018,07,23,04,15,10.80
2018,07,23,04,16,10.80
2018,07,23,04,17,10.80
2018,07,23,04,18,10.70
2018,07,23,04,19,10.80
2018,07,23,04,20,10.80
2018,07,23,04,21,10.80
2018,07,23,04,22,10.80
2018,07,23,04,23,10.80
2018,07,23,04,24,10.80
2018,07,23,04,25,10.80
2018,07,23,04,26,10.80
2018,07,23,04,27,10.80
2018,07,23,04,28,10.80
2018,07,23,04,29,10.80
2018,07,23,04,30,10.80
2018,07,23,04,31,10.80
2018,07,23,04,32,10.80
2018,07,23,04,33,10.80
2018,07,23,04,34,10.80
2018,07,23,04,35,10.80
2018,07,23,04,36,10.80
2018,07,23,04,37,10.80
2018,07,23,04,38,10.80
2018,07,23,04,39,10.80
2018,07,23,04,40,10.70
2018,07,23,04,41,10.70
2018,07,23,04,42,10.70
2018,07,23,04,43,10.70
2018,07,23,04,44,10.70
2018,07,23,04,45,10.70
2018,07,23,04,46,10.70
2018,07,23,04,47,10.70
2018,07,23,04,48,10.70
2018,07,23,04,49,10.70
2018,07,23,04,50,10.80
2018,07,23,04,51,10.70
2018,07,23,04,52,10.70
2018,07,23,04,53,10.70
2018,07,23,04,54,10.70
2018,07,23,04,55,10.80
2018,07,23,04,56,10.70
2018,07,23,04,57,10.70
2018,07,23,04,58,10.70
2018,07,23,04,59,10.70
2018,07,23,05,00,10.70
2018,07,23,05,01,10.70
2018,07,23,05,02,10.70
2018,07,23,05,03,10.70
2018,07,23,05,04,10.70
2018,07,23,05,05,10.70
2018,07,23,05,06,10.70
2018,07,23,05,07,10.70
2018,07,23,05,08,10.80
2018,07,23,05,09,10.80
2018,07,23,05,10,10.70
2018,07,23,05,11,10.70
2018,07,23,05,12,10.70
2018,07,23,05,13,10.80
2018,07,23,05,14,10.80
2018,07,23,05,15,10.80
2018,07,23,05,16,10.80
2018,07,23,05,17,10.70
2018,07,23,05,18,10.70
2018,07,23,05,19,10.70
2018,07,23,05,20,10.70
2018,07,23,05,21,10.70
2018,07,23,05,22,10.70
2018,07,23,05,23,10.70
2018,07,23,05,24,10.70
2018,07,23,05,25,10.70
2018,07,23,05,26,10.70
2018,07,23,05,27,10.70
2018,07,23,05,28,10.70
2018,07,23,05,29,10.70
2018,07,23,05,30,10.70
2018,07,23,05,31,10.70
2018,07,23,05,32,10.70
2018,07,23,05,33,10.70
2018,07,23,05,34,10.70
2018,07,23,05,35,10.70
2018,07,23,05,36,10.70
2018,07,23,05,37,10.70
2018,07,23,05,38,10.70
2018,07,23,05,39,10.70
2018,07,23,05,40,10.70
2018,07,23,05,41,10.70
2018,07,23,05,42,10.70
2018,07,23,05,43,10.70
2018,07,23,05,44,10.70
2018,07,23,05,45,10.70
2018,07,23,05,46,10.70
2018,07,23,05,47,10.70
2018,07,23,05,48,10.70
2018,07,23,05,49,10.70
2018,07,23,05,50,10.70
2018,07,23,05,51,10.70
2018,07,23,05,52,10.70
2018,07,23,05,53,10.70
2018,07,23,05,54,10.70
2018,07,23,05,55,10.60
2018,07,23,05,56,10.60
2018,07,23,05,57,10.60
2018,07,23,05,58,10.60
2018,07,23,05,59,10.60
2018,07,23,06,00,10.60
2018,07,23,06,01,10.50
2018,07,23,06,02,10.50
2018,07,23,06,03,10.50
2018,07,23,06,04,10.50
2018,07,23,06,05,10.50
2018,07,23,06,06,10.40
2018,07,23,06,07,10.40
2018,07,23,06,08,10.40
2018,07,23,06,09,10.40
2018,07,23,06,10,10.40
2018,07,23,06,11,10.40
2018,07,23,06,12,10.40
2018,07,23,06,13,10.30
2018,07,23,06,14,10.30
2018,07,23,06,15,10.30
2018,07,23,06,16,10.30
2018,07,23,06,17,10.30
2018,07,23,06,18,10.30
2018,07,23,06,19,10.30
2018,07,23,06,20,10.30
2018,07,23,06,21,10.30
2018,07,23,06,22,10.30
2018,07,23,06,23,10.30
2018,07,23,06,24,10.40
2018,07,23,06,25,10.40
2018,07,23,06,26,10.40
2018,07,23,06,27,10.40
2018,07,23,06,28,10.40
2018,07,23,06,29,10.40
2018,07,23,06,30,10.50
2018,07,23,06,31,10.50
2018,07,23,06,32,10.50
2018,07,23,06,33,10.50
2018,07,23,06,34,10.60
2018,07,23,06,35,10.60
2018,07,23,06,36,10.60
2018,07,23,06,37,10.60
2018,07,23,06,38,10.60
2018,07,23,06,39,10.70
2018,07,23,06,40,10.70
2018,07,23,06,41,10.70
2018,07,23,06,42,10.70
2018,07,23,06,43,10.70
2018,07,23,06,44,10.70
2018,07,23,06,45,10.80
2018,07,23,06,46,10.80
2018,07,23,06,47,10.80
2018,07,23,06,48,10.80
2018,07,23,06,49,10.80
2018,07,23,06,50,10.80
2018,07,23,06,51,10.90
2018,07,23,06,52,10.90
2018,07,23,06,53,10.90
2018,07,23,06,54,11.00
2018,07,23,06,55,11.00
2018,07,23,06,56,11.00
2018,07,23,06,57,11.10
2018,07,23,06,58,11.10
2018,07,23,06,59,11.10
2018,07,23,07,00,11.10
2018,07,23,07,01,11.10
2018,07,23,07,02,11.20
2018,07,23,07,03,11.20
2018,07,23,07,04,11.10
2018,07,23,07,05,11.10
2018,07,23,07,06,11.10
2018,07,23,07,07,11.10
2018,07,23,07,08,11.20
2018,07,23,07,09,11.20
2018,07,23,07,10,11.20
2018,07,23,07,11,11.20
2018,07,23,07,12,11.20
2018,07,23,07,13,11.20
2018,07,23,07,14,11.20
2018,07,23,07,15,11.20
2018,07,23,07,16,11.20
2018,07,23,07,17,11.30
2018,07,23,07,18,11.30
2018,07,23,07,19,11.30
2018,07,23,07,20,11.30
2018,07,23,07,21,11.30
2018,07,23,07,22,11.30
2018,07,23,07,23,11.40
2018,07,23,07,24,11.40
2018,07,23,07,25,11.40
2018,07,23,07,26,11.40
2018,07,23,07,27,11.50
2018,07,23,07,28,11.50
2018,07,23,07,29,11.60
2018,07,23,07,30,11.60
2018,07,23,07,31,11.60
2018,07,23,07,32,11.60
2018,07,23,07,33,11.60
2018,07,23,07,34,11.60
2018,07,23,07,35,11.60
2018,07,23,07,36,11.60
2018,07,23,07,37,11.70
2018,07,23,07,38,11.70
2018,07,23,07,39,11.80
2018,07,23,07,40,11.80
2018,07,23,07,41,11.90
2018,07,23,07,42,12.00
2018,07,23,07,43,12.10
2018,07,23,07,44,12.10
2018,07,23,07,45,12.20
2018,07,23,07,46,12.30
2018,07,23,07,47,12.30
2018,07,23,07,48,12.40
2018,07,23,07,49,12.40
2018,07,23,07,50,12.50
2018,07,23,07,51,12.60
2018,07,23,07,52,12.70
2018,07,23,07,53,12.70
2018,07,23,07,54,12.80
2018,07,23,07,55,12.90
2018,07,23,07,56,12.90
2018,07,23,07,57,13.00
2018,07,23,07,58,13.10
2018,07,23,07,59,13.10
2018,07,23,08,00,13.10
2018,07,23,08,01,13.10
2018,07,23,08,02,13.10
2018,07,23,08,03,13.10
2018,07,23,08,04,13.00
2018,07,23,08,05,13.00
2018,07,23,08,06,13.00
2018,07,23,08,07,12.90
2018,07,23,08,08,12.90
2018,07,23,08,09,12.90
2018,07,23,08,10,12.90
2018,07,23,08,11,13.00
2018,07,23,08,12,13.00
2018,07,23,08,13,13.00
2018,07,23,08,14,13.00
2018,07,23,08,15,13.00
2018,07,23,08,16,13.00
2018,07,23,08,17,13.00
2018,07,23,08,18,13.00
2018,07,23,08,19,13.00
2018,07,23,08,20,13.00
2018,07,23,08,21,13.00
2018,07,23,08,22,13.00
2018,07,23,08,23,13.00
2018,07,23,08,24,13.10
2018,07,23,08,25,13.10
2018,07,23,08,26,13.10
2018,07,23,08,27,13.10
2018,07,23,08,28,13.20
2018,07,23,08,29,13.20
2018,07,23,08,30,13.30
2018,07,23,08,31,13.30
2018,07,23,08,32,13.30
2018,07,23,08,33,13.40
2018,07,23,08,34,13.50
2018,07,23,08,35,13.60
2018,07,23,08,36,13.70
2018,07,23,08,37,13.70
2018,07,23,08,38,13.80
2018,07,23,08,39,13.90
2018,07,23,08,40,14.00
2018,07,23,08,41,14.00
2018,07,23,08,42,14.10
2018,07,23,08,43,14.20
2018,07,23,08,44,14.30
2018,07,23,08,45,14.30
2018,07,23,08,46,14.40
2018,07,23,08,47,14.50
2018,07,23,08,48,14.60
2018,07,23,08,49,14.60
2018,07,23,08,50,14.60
2018,07,23,08,51,14.60
2018,07,23,08,52,14.70
2018,07,23,08,53,14.70
2018,07,23,08,54,14.70
2018,07,23,08,55,14.70
2018,07,23,08,56,14.80
2018,07,23,08,57,14.80
2018,07,23,08,58,14.90
2018,07,23,08,59,14.90
2018,07,23,09,00,15.00
2018,07,23,09,01,15.10
2018,07,23,09,02,15.20
2018,07,23,09,03,15.20
2018,07,23,09,04,15.30
2018,07,23,09,05,15.30
2018,07,23,09,06,15.30
2018,07,23,09,07,15.30
2018,07,23,09,08,15.30
2018,07,23,09,09,15.30
2018,07,23,09,10,15.30
2018,07,23,09,11,15.20
2018,07,23,09,12,15.20
2018,07,23,09,13,15.10
2018,07,23,09,14,15.20
2018,07,23,09,15,15.20
2018,07,23,09,16,15.20
2018,07,23,09,17,15.30
2018,07,23,09,18,15.30
2018,07,23,09,19,15.40
2018,07,23,09,20,15.40
2018,07,23,09,21,15.50
2018,07,23,09,22,15.50
2018,07,23,09,23,15.40
2018,07,23,09,24,15.40
2018,07,23,09,25,15.50
2018,07,23,09,26,15.60
2018,07,23,09,27,15.60
2018,07,23,09,28,15.60
2018,07,23,09,29,15.70
2018,07,23,09,30,15.70
2018,07,23,09,31,15.70
2018,07,23,09,32,15.70
2018,07,23,09,33,15.70
2018,07,23,09,34,15.70
2018,07,23,09,35,15.80
2018,07,23,09,36,15.80
2018,07,23,09,37,15.80
2018,07,23,09,38,15.80
2018,07,23,09,39,15.80
2018,07,23,09,40,15.80
2018,07,23,09,41,15.80
2018,07,23,09,42,15.80
2018,07,23,09,43,15.80
2018,07,23,09,44,15.80
2018,07,23,09,45,15.90
2018,07,23,09,46,16.00
2018,07,23,09,47,16.10
2018,07,23,09,48,16.20
2018,07,23,09,49,16.30
2018,07,23,09,50,16.30
2018,07,23,09,51,16.40
2018,07,23,09,52,16.50
2018,07,23,09,53,16.60
2018,07,23,09,54,16.70
2018,07,23,09,55,16.80
2018,07,23,09,56,16.90
2018,07,23,09,57,17.00
2018,07,23,09,58,17.00
2018,07,23,09,59,17.10
2018,07,23,10,00,17.20
2018,07,23,10,01,17.20
2018,07,23,10,02,17.20
2018,07,23,10,03,17.30
2018,07,23,10,04,17.30
2018,07,23,10,05,17.20
2018,07,23,10,06,17.20
2018,07,23,10,07,17.10
2018,07,23,10,08,17.00
2018,07,23,10,09,16.90
2018,07,23,10,10,16.80
2018,07,23,10,11,16.70
2018,07,23,10,12,16.70
2018,07,23,10,13,16.70
2018,07,23,10,14,16.80
2018,07,23,10,15,16.80
2018,07,23,10,16,16.90
2018,07,23,10,17,16.90
2018,07,23,10,18,17.00
2018,07,23,10,19,17.00
2018,07,23,10,20,17.10
2018,07,23,10,21,17.20
2018,07,23,10,22,17.30
2018,07,23,10,23,17.40
2018,07,23,10,24,17.40
2018,07,23,10,25,17.50
2018,07,23,10,26,17.50
2018,07,23,10,27,17.50
2018,07,23,10,28,17.60
2018,07,23,10,29,17.60
2018,07,23,10,30,17.60
2018,07,23,10,31,17.60
2018,07,23,10,32,17.60
2018,07,23,10,33,17.60
2018,07,23,10,34,17.70
2018,07,23,10,35,17.70
2018,07,23,10,36,17.70
2018,07,23,10,37,17.70
2018,07,23,10,38,17.80
2018,07,23,10,39,17.80
2018,07,23,10,40,17.80
2018,07,23,10,41,17.80
2018,07,23,10,42,17.80
2018,07,23,10,43,17.80
2018,07,23,10,44,17.80
2018,07,23,10,45,17.80
2018,07,23,10,46,17.80
2018,07,23,10,47,17.70
2018,07,23,10,48,17.70
2018,07,23,10,49,17.70
2018,07,23,10,50,17.70
2018,07,23,10,51,17.60
2018,07,23,10,52,17.50
2018,07,23,10,53,17.60
2018,07,23,10,54,17.60
2018,07,23,10,55,17.70
2018,07,23,10,56,17.80
2018,07,23,10,57,17.90
2018,07,23,10,58,17.90
2018,07,23,10,59,17.90
2018,07,23,11,00,17.90
2018,07,23,11,01,17.90
2018,07,23,11,02,17.90
2018,07,23,11,03,18.00
2018,07,23,11,04,18.10
2018,07,23,11,05,18.10
2018,07,23,11,06,18.20
2018,07,23,11,07,18.20
2018,07,23,11,08,18.30
2018,07,23,11,09,18.30
2018,07,23,11,10,18.30
2018,07,23,11,11,18.40
2018,07,23,11,12,18.40
2018,07,23,11,13,18.50
2018,07,23,11,14,18.60
2018,07,23,11,15,18.60
2018,07,23,11,16,18.60
2018,07,23,11,17,18.60
2018,07,23,11,18,18.60
2018,07,23,11,19,18.60
2018,07,23,11,20,18.70
2018,07,23,11,21,18.70
2018,07,23,11,22,18.80
2018,07,23,11,23,19.00
2018,07,23,11,24,19.00
2018,07,23,11,25,19.00
2018,07,23,11,26,18.90
2018,07,23,11,27,18.80
2018,07,23,11,28,18.80
2018,07,23,11,29,18.70
2018,07,23,11,30,18.70
2018,07,23,11,31,18.60
2018,07,23,11,32,18.50
2018,07,23,11,33,18.40
2018,07,23,11,34,18.30
2018,07,23,11,35,18.30
2018,07,23,11,36,18.30
2018,07,23,11,37,18.40
2018,07,23,11,38,18.40
2018,07,23,11,39,18.30
2018,07,23,11,40,18.30
2018,07,23,11,41,18.40
2018,07,23,11,42,18.40
2018,07,23,11,43,18.40
2018,07,23,11,44,18.40
2018,07,23,11,45,18.50
2018,07,23,11,46,18.60
2018,07,23,11,47,18.60
2018,07,23,11,48,18.60
2018,07,23,11,49,18.70
2018,07,23,11,50,18.70
2018,07,23,11,51,18.80
2018,07,23,11,52,18.80
2018,07,23,11,53,18.80
2018,07,23,11,54,18.70
2018,07,23,11,55,18.70
2018,07,23,11,56,18.60
2018,07,23,11,57,18.60
2018,07,23,11,58,18.70
2018,07,23,11,59,18.80
2018,07,23,12,00,18.90
2018,07,23,12,01,19.00
2018,07,23,12,02,19.00
2018,07,23,12,03,19.10
2018,07,23,12,04,19.10
2018,07,23,12,05,19.20
2018,07,23,12,06,19.20
2018,07,23,12,07,19.20
2018,07,23,12,08,19.20
2018,07,23,12,09,19.20
2018,07,23,12,10,19.20
2018,07,23,12,11,19.20
2018,07,23,12,12,19.20
2018,07,23,12,13,19.20
2018,07,23,12,14,19.10
2018,07,23,12,15,19.10
2018,07,23,12,16,19.10
2018,07,23,12,17,19.10
2018,07,23,12,18,19.20
2018,07,23,12,19,19.30
2018,07,23,12,20,19.30
2018,07,23,12,21,19.30
2018,07,23,12,22,19.30
2018,07,23,12,23,19.30
2018,07,23,12,24,19.30
2018,07,23,12,25,19.40
2018,07,23,12,26,19.40
2018,07,23,12,27,19.50
2018,07,23,12,28,19.60
2018,07,23,12,29,19.70
2018,07,23,12,30,19.80
2018,07,23,12,31,19.90
2018,07,23,12,32,20.00
2018,07,23,12,33,20.00
2018,07,23,12,34,20.10
2018,07,23,12,35,20.20
2018,07,23,12,36,20.30
2018,07,23,12,37,20.40
2018,07,23,12,38,20.60
2018,07,23,12,39,20.70
2018,07,23,12,40,20.90
2018,07,23,12,41,21.00
2018,07,23,12,42,21.10
2018,07,23,12,43,21.20
2018,07,23,12,44,21.20
2018,07,23,12,45,21.30
2018,07,23,12,46,21.30
2018,07,23,12,47,21.30
2018,07,23,12,48,21.30
2018,07,23,12,49,21.20
2018,07,23,12,50,21.20
2018,07,23,12,51,21.10
2018,07,23,12,52,21.10
2018,07,23,12,53,21.10
2018,07,23,12,54,21.10
2018,07,23,12,55,21.10
2018,07,23,12,56,21.10
2018,07,23,12,57,21.10
2018,07,23,12,58,21.10
2018,07,23,12,59,21.10
2018,07,23,13,00,21.10
2018,07,23,13,01,21.20
2018,07,23,13,02,21.10
2018,07,23,13,03,21.10
2018,07,23,13,04,21.10
2018,07,23,13,05,21.00
2018,07,23,13,06,20.90
2018,07,23,13,07,20.90
2018,07,23,13,08,20.80
2018,07,23,13,09,20.80
2018,07,23,13,10,20.70
2018,07,23,13,11,20.70
2018,07,23,13,12,20.80
2018,07,23,13,13,20.90
2018,07,23,13,14,21.10
2018,07,23,13,15,21.20
2018,07,23,13,16,21.20
2018,07,23,13,17,21.30
2018,07,23,13,18,21.30
2018,07,23,13,19,21.20
2018,07,23,13,20,21.10
2018,07,23,13,21,21.10
2018,07,23,13,22,21.00
2018,07,23,13,23,21.10
2018,07,23,13,24,21.10
2018,07,23,13,25,21.10
2018,07,23,13,26,21.20
2018,07,23,13,27,21.20
2018,07,23,13,28,21.30
2018,07,23,13,29,21.40
2018,07,23,13,30,21.40
2018,07,23,13,31,21.50
2018,07,23,13,32,21.60
2018,07,23,13,33,21.80
2018,07,23,13,34,21.80
2018,07,23,13,35,21.90
2018,07,23,13,36,21.90
2018,07,23,13,37,21.90
2018,07,23,13,38,21.90
2018,07,23,13,39,22.00
2018,07,23,13,40,22.10
2018,07,23,13,41,22.20
2018,07,23,13,42,22.40
2018,07,23,13,43,22.40
2018,07,23,13,44,22.40
2018,07,23,13,45,22.40
2018,07,23,13,46,22.40
2018,07,23,13,47,22.40
2018,07,23,13,48,22.40
2018,07,23,13,49,22.40
2018,07,23,13,50,22.50
2018,07,23,13,51,22.70
2018,07,23,13,52,22.70
2018,07,23,13,53,22.80
2018,07,23,13,54,22.90
2018,07,23,13,55,23.00
2018,07,23,13,56,23.10
2018,07,23,13,57,23.20
2018,07,23,13,58,23.30
2018,07,23,13,59,23.40
2018,07,23,14,00,23.50
2018,07,23,14,01,23.50
2018,07,23,14,02,23.60
2018,07,23,14,03,23.60
2018,07,23,14,04,23.60
2018,07,23,14,05,23.50
2018,07,23,14,06,23.40
2018,07,23,14,07,23.40
2018,07,23,14,08,23.40
2018,07,23,14,09,23.30
2018,07,23,14,10,23.30
2018,07,23,14,11,23.40
2018,07,23,14,12,23.40
2018,07,23,14,13,23.30
2018,07,23,14,14,23.30
2018,07,23,14,15,23.20
2018,07,23,14,16,23.20
2018,07,23,14,17,23.20
2018,07,23,14,18,23.10
2018,07,23,14,19,23.10
2018,07,23,14,20,23.10
2018,07,23,14,21,23.10
2018,07,23,14,22,23.00
2018,07,23,14,23,22.90
2018,07,23,14,24,22.70
2018,07,23,14,25,22.50
2018,07,23,14,26,22.50
2018,07,23,14,27,22.40
2018,07,23,14,28,22.30
2018,07,23,14,29,22.20
2018,07,23,14,30,22.20
2018,07,23,14,31,22.10
2018,07,23,14,32,22.00
2018,07,23,14,33,22.00
2018,07,23,14,34,22.00
2018,07,23,14,35,22.00
2018,07,23,14,36,22.10
2018,07,23,14,37,22.20
2018,07,23,14,38,22.30
2018,07,23,14,39,22.40
2018,07,23,14,40,22.50
2018,07,23,14,41,22.60
2018,07,23,14,42,22.70
2018,07,23,14,43,22.70
2018,07,23,14,44,22.70
2018,07,23,14,45,22.60
2018,07,23,14,46,22.60
2018,07,23,14,47,22.60
2018,07,23,14,48,22.60
2018,07,23,14,49,22.50
2018,07,23,14,50,22.50
2018,07,23,14,51,22.40
2018,07,23,14,52,22.30
2018,07,23,14,53,22.10
2018,07,23,14,54,22.00
2018,07,23,14,55,21.80
2018,07,23,14,56,21.70
2018,07,23,14,57,21.60
2018,07,23,14,58,21.50
2018,07,23,14,59,21.50
2018,07,23,15,00,21.50
2018,07,23,15,01,21.60
2018,07,23,15,02,21.70
2018,07,23,15,03,21.70
2018,07,23,15,04,21.70
2018,07,23,15,05,21.70
2018,07,23,15,06,21.70
2018,07,23,15,07,21.70
2018,07,23,15,08,21.70
2018,07,23,15,09,21.70
2018,07,23,15,10,21.70
2018,07,23,15,11,21.70
2018,07,23,15,12,21.70
2018,07,23,15,13,21.70
2018,07,23,15,14,21.80
2018,07,23,15,15,21.80
2018,07,23,15,16,21.70
2018,07,23,15,17,21.70
2018,07,23,15,18,21.60
2018,07,23,15,19,21.50
2018,07,23,15,20,21.50
2018,07,23,15,21,21.60
2018,07,23,15,22,21.70
2018,07,23,15,23,21.80
2018,07,23,15,24,21.80
2018,07,23,15,25,21.80
2018,07,23,15,26,21.80
2018,07,23,15,27,21.80
2018,07,23,15,28,21.80
2018,07,23,15,29,21.70
2018,07,23,15,30,21.70
2018,07,23,15,31,21.70
2018,07,23,15,32,21.70
2018,07,23,15,33,21.80
2018,07,23,15,34,21.80
2018,07,23,15,35,21.90
2018,07,23,15,36,22.00
2018,07,23,15,37,22.10
2018,07,23,15,38,22.00
2018,07,23,15,39,21.90
2018,07,23,15,40,21.80
2018,07,23,15,41,21.60
2018,07,23,15,42,21.60
2018,07,23,15,43,21.50
2018,07,23,15,44,21.50
2018,07,23,15,45,21.40
2018,07,23,15,46,21.40
2018,07,23,15,47,21.40
2018,07,23,15,48,21.40
2018,07,23,15,49,21.30
2018,07,23,15,50,21.30
2018,07,23,15,51,21.40
2018,07,23,15,52,21.40
2018,07,23,15,53,21.40
2018,07,23,15,54,21.50
2018,07,23,15,55,21.60
2018,07,23,15,56,21.70
2018,07,23,15,57,21.80
2018,07,23,15,58,21.90
2018,07,23,15,59,21.90
2018,07,23,16,00,22.00
2018,07,23,16,01,21.90
2018,07,23,16,02,21.80
2018,07,23,16,03,21.70
2018,07,23,16,04,21.60
2018,07,23,16,05,21.40
2018,07,23,16,06,21.40
2018,07,23,16,07,21.30
2018,07,23,16,08,21.20
2018,07,23,16,09,21.20
2018,07,23,16,10,21.10
2018,07,23,16,11,21.00
2018,07,23,16,12,20.90
2018,07,23,16,13,20.80
2018,07,23,16,14,20.80
2018,07,23,16,15,20.70
2018,07,23,16,16,20.50
2018,07,23,16,17,20.30
2018,07,23,16,18,20.20
2018,07,23,16,19,19.80
2018,07,23,16,20,19.70
2018,07,23,16,21,19.60
2018,07,23,16,22,19.70
2018,07,23,16,23,19.60
2018,07,23,16,24,19.60
2018,07,23,16,25,19.50
2018,07,23,16,26,19.40
2018,07,23,16,27,19.30
2018,07,23,16,28,19.10
2018,07,23,16,29,19.00
2018,07,23,16,30,18.90
2018,07,23,16,31,18.80
2018,07,23,16,32,18.70
2018,07,23,16,33,18.60
2018,07,23,16,34,18.70
2018,07,23,16,35,18.80
2018,07,23,16,36,18.90
2018,07,23,16,37,19.00
2018,07,23,16,38,19.10
2018,07,23,16,39,19.20
2018,07,23,16,40,19.30
2018,07,23,16,41,19.40
2018,07,23,16,42,19.40
2018,07,23,16,43,19.50
2018,07,23,16,44,19.60
2018,07,23,16,45,19.60
2018,07,23,16,46,19.60
2018,07,23,16,47,19.50
2018,07,23,16,48,19.40
2018,07,23,16,49,19.30
2018,07,23,16,50,19.30
2018,07,23,16,51,19.30
2018,07,23,16,52,19.30
2018,07,23,16,53,19.30
2018,07,23,16,54,19.30
2018,07,23,16,55,19.40
2018,07,23,16,56,19.40
2018,07,23,16,57,19.50
2018,07,23,16,58,19.50
2018,07,23,16,59,19.40
2018,07,23,17,00,19.40
2018,07,23,17,01,19.30
2018,07,23,17,02,19.20
2018,07,23,17,03,19.10
2018,07,23,17,04,19.00
2018,07,23,17,05,18.90
2018,07,23,17,06,18.80
2018,07,23,17,07,18.70
2018,07,23,17,08,18.40
2018,07,23,17,09,18.30
2018,07,23,17,10,18.30
2018,07,23,17,11,18.30
2018,07,23,17,12,18.30
2018,07,23,17,13,18.20
2018,07,23,17,14,18.00
2018,07,23,17,15,17.90
2018,07,23,17,16,17.80
2018,07,23,17,17,17.60
2018,07,23,17,18,17.40
2018,07,23,17,19,17.30